Regional Weather Roundup
Issued by NWS Sioux Falls, SD

Home | Current Version | Previous Version | Text Only | Print | Product List | Glossary Off
Versions: 1 2 3 4 5 6 7 8 9 10 11 12 13 14 15 16 17 18 19 20 21 22 23 24 25 26 27 28 29 30 31 32 33 34 35 36 37 38 39 40 41 42 43 44 45 46 47 48 49 50

000
ASUS43 KFSD 241902
RWRFSD

WEATHER ROUNDUP FOR SE SOUTH DAKOTA/SW MINNESOTA/NW IOWA
NATIONAL WEATHER SERVICE SIOUX FALLS SD
100 PM CST WED DEC 24 2014

NOTE: "FAIR" INDICATES FEW OR NO CLOUDS BELOW 12,000 FEET WITH NO
SIGNIFICANT WEATHER AND OR OBSTRUCTIONS TO VISIBILITY.


SDZ038>040-050-052>070-242000-
SOUTHEAST SOUTH DAKOTA

CITY           SKY/WX    TMP DP  RH WIND       PRES   REMARKS
CHAMBERLAIN    SUNNY     26  23  85 S5        29.71F WCI  21
HURON          CLOUDY    26  23  88 SW7       29.73F WCI  18
MADISON        FOG       23  23 100 W5        29.74F VSB 1/4 WCI  17
MITCHELL       CLOUDY    27  24  89 SW3       29.76F
SIOUX FALLS    FRZ DRZL  25  24  96 NW8       29.76F FOG     WCI  16
WINNER         FAIR      30  18  60 S12       29.68F WCI  20
YANKTON        CLOUDY    27  23  86 W6        29.80F WCI  20
$$

MNZ071-072-080-081-089-090-097-098-242000-
SOUTHWEST MINNESOTA

CITY           SKY/WX    TMP DP  RH WIND       PRES   REMARKS
FAIRMONT       CLOUDY    32  28  86 N10       29.70F WCI  24
JACKSON        CLOUDY    32  30  93 NW12      29.70F WCI  23
LUVERNE        CLOUDY    30  28  93 W9        29.75F WCI  22
MARSHALL       CLOUDY    30  25  80 W9        29.72F WCI  22
MONTEVIDEO     CLOUDY    30  30 100 NW9       29.72F WCI  22
PIPESTONE      CLOUDY    27  27 100 W7        29.72F WCI  19
REDWOOD FALLS  CLOUDY    32  29  88 NW8       29.71F WCI  25
TRACY          CLOUDY    32  29  91 W8        29.72F WCI  25
WINDOM         CLOUDY    30  30 100 NW10G17   29.70F WCI  21
WORTHINGTON    CLOUDY    30 -17  12 W10       29.72F WCI  21
$$

IAZ001>003-012>014-020>022-031-032-NEZ013-014-SDZ071-242000-
NORTHWEST IOWA

CITY           SKY/WX    TMP DP  RH WIND       PRES   REMARKS
DENISON        CLOUDY    30  30 100 NW13      29.75F WCI  20
ESTHERVILLE    CLOUDY    31  29  92 NW15      29.70F WCI  20
SIOUX CITY     CLOUDY    29  26  89 W10       29.79F WCI  20
SPENCER        CLOUDY    33  27  78 NW13      29.72F WCI  24
$$

ABBREVIATIONS USED IN REMARKS
   TC - TEMPERATURE IN CELSIUS
  WCI - WIND CHILL INDEX
   HX - HEAT INDEX
  VSB - VISIBILITY




USA.gov is the U.S. government's official web portal to all federal, state and local government web resources and services.